Location: Newark
(13.2833°S, 176.1833°W)
Time: 08:03:30
(UTC+00:00)

Hubble Space Telescope - Pass Details

Date: 18 November 2019
Orbit: 536 x 540 km, 28.5° (Epoch: 14 December)

Event Time Altitude Azimuth Distance (km) Brightness Sun altitude
Exits shadow 15:43:36 40° 347° (NNW) 794 1.3 -19.6°
Maximum altitude 15:44:33 49° 29° (NNE) 691 1.3 -19.4°
Drops below altitude 10° 15:48:33 10° 104° (ESE) 1,787 4.6 -18.5°
Sets 15:50:52 0° 110° (ESE) 2,680 6.0 -18.0°
